[[{"header":{"parameterUnit":"m.s-1","parameterCategory":1,"la1":30.2991,"la2":30.254,"lo1":-89.0895,"lo2":-89.0444,"dy":0.0017,"dx":0.0017,"nx":28,"ny":28,"refTime":"2024-02-21T03:00:00:Z","depth":0,"parameterNumber":2,"parameterNumberName":"U-component_of_WINDS"},"data":[0,0,0,0,0,0,0,0,0,0,0,0,0,0,0,0,0,0,0,0,0,0,0,0,0,0,0,0,0,0,0,0,0,0,0,0,0,0,0,0,0,0,0,0,0,0,0,0,0,0,0,0,0,0,0,0,0,0,-0.7425,-0.7425,0,-0.741,-0.7409,-0.7409,-0.7414,-0.7414,-0.7414,-0.7415,-0.7399,-0.7398,-0.7398,0,0,0,0,0,0,0,0,0,0,0,0,0,-0.7457,-0.7456,-0.7425,-0.7425,-0.7425,-0.741,-0.7409,-0.7409,-0.7414,-0.7414,-0.7415,-0.7415,-0.7399,-0.7398,-0.7397,0,0,0,0,0,0,0,0,0,0,0,0,0,-0.7442,-0.7456,-0.7425,-0.7425,-0.7425,-0.741,-0.7409,-0.7409,-0.7414,-0.7414,-0.7415,-0.7415,-0.7399,-0.7398,-0.7397,-0.7381,0,0,-0.7394,-0.7394,0,0,0,0,0,0,0,0,-0.7443,-0.7441,-0.7425,-0.7425,-0.7425,-0.7414,-0.7415,-0.74,-0.7414,-0.7418,-0.7415,-0.7415,-0.7404,-0.7402,-0.7398,-0.738,-0.738,-0.7394,-0.7393,-0.7393,-0.7393,0,0,0,0,0,0,0,-0.7444,-0.7442,-0.7419,-0.7425,-0.7425,-0.7425,-0.7424,-0.7412,-0.7408,-0.7418,-0.7418,-0.7416,-0.7404,-0.7399,-0.7398,-0.7379,-0.7394,-0.7393,-0.7392,-0.7392,-0.7344,-0.7343,0,0,0,0,0,0,-0.7445,-0.7443,-0.742,-0.7419,-0.7435,-0.7424,-0.7423,-0.7417,-0.7408,-0.7408,-0.7416,-0.7416,-0.7401,-0.7399,-0.7397,-0.7375,-0.7393,-0.7392,-0.7391,-0.7344,-0.7343,-0.7343,0,0,0,0,0,0,-0.7446,-0.7443,-0.742,-0.7431,-0.7428,-0.7423,-0.7417,-0.7417,-0.7412,-0.7407,-0.7406,-0.7412,-0.7401,-0.7399,-0.7384,-0.7375,-0.7391,-0.739,-0.7345,-0.7344,-0.7343,-0.7333,0,0,0,0,0,0,-0.7447,-0.7444,-0.7438,-0.7431,-0.7427,-0.7408,-0.7417,-0.7416,-0.741,-0.7411,-0.7403,-0.7402,-0.7401,-0.7386,-0.7383,-0.7374,-0.739,-0.7346,-0.7344,-0.7343,-0.7334,-0.7332,-0.733,0,0,0,0,0,-0.7448,-0.7437,-0.7438,-0.7435,-0.742,-0.7408,-0.7406,-0.7405,-0.741,-0.7403,-0.7399,-0.7403,-0.7376,-0.7384,-0.7381,-0.7372,-0.7346,-0.7345,-0.7343,-0.7335,-0.7332,-0.733,0,0,0,0,0,0,-0.7445,-0.7436,-0.7437,-0.7423,-0.7416,-0.7408,-0.7401,-0.7402,-0.7394,-0.7395,-0.7393,-0.7392,-0.7376,-0.7372,-0.7381,-0.7353,-0.7362,-0.736,-0.7357,-0.7354,-0.7352,-0.7353,-0.7389,0,0,0,0,0,-0.7442,-0.7433,-0.7426,-0.7414,-0.741,-0.7406,-0.74,-0.74,-0.7392,-0.7389,-0.7385,-0.7377,-0.7367,-0.736,-0.7351,-0.7333,-0.733,-0.7325,-0.7323,-0.7321,-0.7319,-0.7307,-0.7303,-0.7338,-0.7338,-0.7338,0,0,-0.7437,-0.7431,-0.7425,-0.7413,-0.7407,-0.7396,-0.7403,-0.7393,-0.7384,-0.7388,-0.7373,-0.7369,-0.736,-0.7343,-0.7336,-0.734,-0.7309,-0.7319,-0.7318,-0.7317,-0.7305,-0.7302,-0.7299,-0.7337,-0.7337,-0.7337,0,0,-0.7422,-0.7417,-0.7406,-0.7399,-0.739,-0.7387,-0.7384,-0.7375,-0.7372,-0.7357,-0.7359,-0.7348,-0.7331,-0.7324,-0.7318,-0.7297,-0.7298,-0.7293,-0.7282,-0.727,-0.7267,-0.7265,-0.7255,-0.7252,-0.7292,-0.7292,-0.7292,0,-0.7417,-0.7401,-0.74,-0.7387,-0.7381,-0.7382,-0.7369,-0.7363,-0.7351,-0.7346,-0.7351,-0.7327,-0.7322,-0.7302,-0.7296,-0.7292,-0.7287,-0.7295,-0.7268,-0.7265,-0.7263,-0.7254,-0.725,-0.7291,-0.7291,-0.7291,-0.7291,0,-0.7394,-0.7383,-0.7375,-0.7362,-0.7354,-0.7342,-0.7337,-0.7329,-0.7328,-0.7324,-0.7307,-0.73,-0.7288,-0.7283,-0.7283,-0.7262,-0.7264,-0.7268,-0.7277,-0.7259,-0.725,-0.7247,-0.729,-0.729,-0.729,-0.7291,0,0,-0.7379,-0.7363,-0.736,-0.7353,-0.7341,-0.7332,-0.7318,-0.7305,-0.7298,-0.7289,-0.7276,-0.726,-0.7263,-0.7256,-0.7254,-0.7244,-0.7224,-0.7249,-0.7249,-0.7243,-0.7198,-0.7194,-0.719,-0.7225,-0.7224,-0.7224,-0.7198,0,-0.7362,-0.7339,-0.7335,-0.7314,-0.7302,-0.7301,-0.7289,-0.7279,-0.7274,-0.7263,-0.7257,-0.7245,-0.725,-0.7246,-0.7235,-0.7229,-0.7215,-0.7231,-0.7212,-0.7211,-0.7214,-0.7186,-0.7183,-0.7159,-0.7195,-0.7194,-0.7194,0,-0.734,-0.7329,-0.7306,-0.7293,-0.7287,-0.7277,-0.7263,-0.7252,-0.724,-0.7237,-0.7228,-0.7227,-0.7211,-0.7219,-0.7196,-0.7207,-0.7199,-0.7194,-0.7193,-0.7191,-0.7201,-0.7182,-0.7151,-0.7147,-0.7188,-0.7189,-0.7189,0,-0.7329,-0.7308,-0.7291,-0.7285,-0.727,-0.7262,-0.7255,-0.7243,-0.7235,-0.7222,-0.7216,-0.7202,-0.7194,-0.7183,-0.7177,-0.7184,-0.7154,-0.7163,-0.7149,-0.7149,-0.7143,-0.7144,-0.711,-0.7139,-0.7139,-0.7139,-0.7139,0,-0.7311,-0.7297,-0.7286,-0.7275,-0.7258,-0.7253,-0.7236,-0.7229,-0.7218,-0.7205,-0.7204,-0.7191,-0.7185,-0.7171,-0.7166,-0.7147,-0.7144,-0.7139,-0.7138,-0.7139,-0.7139,-0.7134,-0.7135,-0.7138,-0.7139,-0.7139,-0.7139,0,-0.7297,-0.7289,-0.727,-0.7255,-0.7251,-0.7239,-0.7226,-0.7215,-0.7208,-0.7192,-0.7187,-0.7177,-0.716,-0.7153,-0.7134,-0.713,-0.7107,-0.7107,-0.7111,-0.711,-0.7096,-0.7097,-0.7057,-0.7051,-0.7085,-0.7085,-0.7085,0,-0.7285,-0.7274,-0.7257,-0.7248,-0.724,-0.7226,-0.7216,-0.7209,-0.7199,-0.7182,-0.7172,-0.7155,-0.7141,-0.7114,-0.7105,-0.7088,-0.7088,-0.7075,-0.7086,-0.7086,-0.7086,-0.7086,-0.7084,-0.7073,-0.7073,-0.7072,-0.7072,0,-0.7265,-0.7261,-0.7247,-0.723,-0.7218,-0.7205,-0.7193,-0.7185,-0.7176,-0.7164,-0.7146,-0.7135,-0.7113,-0.7095,-0.7077,-0.7069,-0.7068,-0.7068,-0.7064,-0.7065,-0.7066,-0.7063,-0.7104,-0.707,-0.707,-0.707,-0.707,-0.707,-0.7251,-0.724,-0.7225,-0.7208,-0.7197,-0.7184,-0.7172,-0.7163,-0.7148,-0.7129,-0.7125,-0.7105,-0.7091,-0.7067,-0.7057,-0.7041,-0.7044,-0.7039,-0.7037,-0.7035,-0.7033,-0.7069,-0.7038,-0.7038,-0.7038,-0.7038,-0.7038,0,-0.723,-0.7219,-0.7204,-0.7185,-0.7171,-0.717,-0.7155,-0.7143,-0.7126,-0.7112,-0.7097,-0.7074,-0.7056,-0.7044,-0.7025,-0.7014,-0.7013,-0.7009,-0.701,-0.7007,-0.7033,-0.7038,-0.701,-0.701,-0.701,-0.701,-0.701,-0.701,-0.7217,-0.7197,-0.719,-0.7163,-0.7152,-0.7132,-0.7123,-0.711,-0.7099,-0.7074,-0.7058,-0.7049,-0.7035,-0.7015,-0.6997,-0.6994,-0.6986,-0.6982,-0.6979,-0.7003,-0.7006,-0.7009,-0.7013,-0.6981,-0.6981,-0.6954,-0.6954,-0.6954]},{"header":{"parameterUnit":"m.s-1","parameterCategory":1,"la1":30.2991,"la2":30.254,"lo1":-89.0895,"lo2":-89.0444,"dy":0.0017,"dx":0.0017,"nx":28,"ny":28,"refTime":"2024-02-21T03:00:00:Z","depth":0,"parameterNumber":3,"parameterNumberName":"V-component_of_WINDS"},"data":[0,0,0,0,0,0,0,0,0,0,0,0,0,0,0,0,0,0,0,0,0,0,0,0,0,0,0,0,0,0,0,0,0,0,0,0,0,0,0,0,0,0,0,0,0,0,0,0,0,0,0,0,0,0,0,0,0,0,2.5764,2.5767,0,2.6053,2.6056,2.6059,2.6152,2.6151,2.615,2.6149,2.6448,2.6456,2.6466,0,0,0,0,0,0,0,0,0,0,0,0,0,2.5298,2.5306,2.5763,2.5767,2.5771,2.6052,2.6056,2.606,2.6153,2.6151,2.6149,2.6148,2.6445,2.6455,2.6466,0,0,0,0,0,0,0,0,0,0,0,0,0,2.5535,2.5309,2.5763,2.5851,2.5862,2.6051,2.6056,2.6061,2.6153,2.6151,2.6149,2.6147,2.6441,2.6454,2.6468,2.6592,0,0,2.651,2.6516,0,0,0,0,0,0,0,0,2.5521,2.5552,2.5834,2.5845,2.5857,2.6064,2.6002,2.6239,2.6153,2.6042,2.6148,2.6146,2.6322,2.6345,2.6404,2.6606,2.6619,2.6511,2.652,2.6525,2.6529,0,0,0,0,0,0,0,2.5505,2.554,2.5878,2.5838,2.5852,2.5878,2.5909,2.6047,2.619,2.6052,2.6059,2.6092,2.6328,2.639,2.6412,2.6623,2.6511,2.6523,2.6532,2.6537,2.6948,2.6951,0,0,0,0,0,0,2.5473,2.5526,2.5869,2.5887,2.5681,2.5888,2.5923,2.6,2.6188,2.6215,2.6093,2.6095,2.6368,2.6395,2.6422,2.6585,2.6525,2.6538,2.6546,2.6946,2.6949,2.6952,0,0,0,0,0,0,2.5463,2.5503,2.5857,2.5709,2.5756,2.5898,2.5984,2.6007,2.6069,2.622,2.6246,2.6131,2.6367,2.6403,2.6551,2.6596,2.6544,2.6557,2.6943,2.6947,2.6951,2.6907,0,0,0,0,0,0,2.5449,2.5498,2.5545,2.5709,2.5763,2.5978,2.5986,2.6014,2.6093,2.6098,2.6262,2.6287,2.6369,2.6529,2.6564,2.6614,2.6568,2.6939,2.6945,2.6949,2.6905,2.6909,2.6913,0,0,0,0,0,2.5432,2.5521,2.5547,2.5588,2.5825,2.5981,2.6012,2.6103,2.6096,2.6146,2.6243,2.6282,2.6585,2.6544,2.6584,2.6639,2.6937,2.6943,2.6949,2.6904,2.6909,2.6913,0,0,0,0,0,0,2.536,2.5544,2.5575,2.5719,2.5834,2.5996,2.6062,2.6104,2.6224,2.6224,2.6332,2.6369,2.6509,2.6588,2.6539,2.6772,2.6763,2.6777,2.6715,2.6721,2.6724,2.6704,2.6579,0,0,0,0,0,2.536,2.547,2.5626,2.5738,2.5794,2.5918,2.5989,2.605,2.6173,2.6222,2.633,2.6449,2.6572,2.665,2.6771,2.6917,2.6956,2.6975,2.6978,2.698,2.6992,2.708,2.7092,2.6972,2.6972,2.6972,0,0,2.5363,2.5478,2.554,2.5727,2.5823,2.5937,2.5958,2.6076,2.6163,2.624,2.6387,2.647,2.6611,2.6759,2.683,2.683,2.7034,2.6988,2.6989,2.7,2.7088,2.7099,2.7109,2.6976,2.6975,2.6974,0,0,2.5428,2.5523,2.563,2.5726,2.5871,2.5953,2.5978,2.6136,2.6194,2.6343,2.6405,2.651,2.6717,2.6817,2.6894,2.7,2.7042,2.7036,2.7057,2.7141,2.715,2.7159,2.7201,2.7215,2.7047,2.7047,2.7047,0,2.5414,2.5586,2.5679,2.5797,2.5879,2.5954,2.6065,2.6153,2.633,2.6387,2.6383,2.6649,2.6748,2.6923,2.6949,2.7008,2.7044,2.7019,2.7141,2.7151,2.7161,2.7203,2.7217,2.7046,2.7046,2.7046,2.7046,0,2.5564,2.5683,2.5752,2.5922,2.6011,2.6124,2.6238,2.6318,2.6371,2.6454,2.6607,2.673,2.6879,2.6924,2.6976,2.7108,2.7104,2.7119,2.7114,2.717,2.7211,2.7227,2.7044,2.7044,2.7044,2.7045,0,0,2.5591,2.5812,2.5836,2.5916,2.6083,2.6178,2.6296,2.6442,2.651,2.663,2.6735,2.691,2.6927,2.7015,2.708,2.7153,2.7235,2.7161,2.7166,2.7174,2.7393,2.7383,2.7399,2.7263,2.7266,2.7269,2.7383,0,2.568,2.5892,2.5982,2.6155,2.6269,2.6343,2.6447,2.6561,2.6643,2.6753,2.6844,2.6969,2.6979,2.7033,2.7109,2.7209,2.7281,2.7201,2.7365,2.737,2.733,2.742,2.7409,2.751,2.7399,2.7402,2.7403,0,2.5811,2.5933,2.6117,2.6274,2.6325,2.6416,2.656,2.6663,2.6796,2.6851,2.6951,2.7012,2.7143,2.7126,2.7309,2.7253,2.7326,2.7385,2.7391,2.7413,2.7392,2.7447,2.7544,2.7561,2.7429,2.7427,2.7425,0,2.5818,2.6027,2.6166,2.6231,2.6417,2.648,2.656,2.6692,2.6775,2.69,2.6957,2.7095,2.7172,2.7279,2.7378,2.7356,2.7554,2.7544,2.7606,2.7604,2.7646,2.7643,2.776,2.7686,2.7686,2.7686,2.7685,0,2.5909,2.602,2.6172,2.6257,2.6385,2.6488,2.6612,2.6698,2.6815,2.6921,2.6993,2.7091,2.7214,2.7329,2.7407,2.755,2.7583,2.7633,2.7653,2.7629,2.7623,2.768,2.7677,2.769,2.7689,2.7688,2.7688,0,2.5938,2.6044,2.6201,2.6364,2.6408,2.6495,2.6636,2.6724,2.6809,2.6943,2.698,2.7115,2.7255,2.7364,2.7544,2.7597,2.7749,2.7769,2.7704,2.7715,2.7772,2.7767,2.7933,2.7962,2.7865,2.7865,2.7866,0,2.5991,2.6079,2.6252,2.6328,2.6408,2.6528,2.6614,2.672,2.6807,2.6967,2.7037,2.7181,2.7302,2.7522,2.7638,2.7778,2.7805,2.7853,2.7826,2.78,2.7811,2.7806,2.7817,2.7857,2.7857,2.7858,2.7858,0,2.6076,2.6125,2.6245,2.6385,2.6486,2.6601,2.6718,2.6776,2.6904,2.6998,2.7142,2.7236,2.7422,2.7566,2.7719,2.7804,2.7855,2.7865,2.7888,2.7866,2.7826,2.7853,2.7717,2.7862,2.7861,2.7861,2.7861,2.7861,2.6123,2.6205,2.6341,2.6474,2.6573,2.6682,2.6773,2.6871,2.6992,2.7152,2.7207,2.7356,2.7491,2.7702,2.7789,2.7909,2.7911,2.7942,2.7951,2.7958,2.7958,2.7804,2.7936,2.7936,2.7936,2.7936,2.7936,0,2.6215,2.6306,2.6427,2.6589,2.6695,2.6731,2.6863,2.695,2.708,2.7201,2.732,2.7487,2.7628,2.7755,2.7903,2.7975,2.8002,2.8011,2.8008,2.8028,2.7945,2.7913,2.7987,2.7987,2.7987,2.7987,2.7987,2.7987,2.6275,2.6419,2.6484,2.6679,2.677,2.6916,2.699,2.7092,2.719,2.7373,2.749,2.7572,2.7698,2.7856,2.7988,2.8023,2.8075,2.8079,2.8119,2.804,2.8033,2.8027,2.7998,2.8089,2.8089,2.8194,2.8194,2.8195]}]]